{"data":{"norad_id":39635,"intl_designator":"2014-017A","name":"IRNSS-1B","alt_names":[],"object_type":"PAYLOAD","status":"ACTIVE","operator":null,"country":"IND","launch_date":"2014-04-04","launch_site_code":"SRILR","launch_vehicle":null,"mission":null,"orbit_class":"UNKNOWN","rcs_meters":6.3096,"size_class":null,"mass_kg":null,"dimensions":null,"purposes":["comms","nav"],"wikipedia_slug":null,"has_3d_model":false,"image_url":null,"decayed_at":null,"tle_current":{"epoch":"2026-09-20T00:04:40.431072Z","epoch_age_seconds":57217,"freshness":"FRESH","line1":"1 39635U 14017A   26263.00324573  .00000117  00000+0  00000+0 0  9999","line2":"2 39635  28.7637 238.7746 0020006 191.5247 344.8131  1.00272238 45744","mean_motion":1.00272238,"eccentricity":0.0020006,"inclination_deg":28.7637,"raan_deg":238.7746,"arg_perigee_deg":191.5247,"mean_anomaly_deg":344.8131,"bstar":0,"rev_number":4574,"period_min":1436.0904161728,"perigee_km":35702.113460623,"apogee_km":35870.822478026,"semimajor_km":42164.604969324,"source":"CELESTRAK","updated_at":"2026-09-20T09:00:45.772180Z"}}}